Orbital Elements at Epoch 2459200.5 (2020-Dec-17.0) TDB
Reference: JPL 34 (heliocentric ecliptic J2000)
Element | Value | Uncertainty (1-sigma) | Units |
e | .1649077875837484 | 2.8307e-08 | |
a | 2.360484109874884 | 5.6461e-09 | au |
q | 1.971221897688823 | 6.7067e-08 | au |
i | .5968964668472729 | 3.3427e-06 | deg |
node | 48.97468202978961 | 0.00034763 | deg |
peri | 51.54645259450677 | 0.00034782 | deg |
M | 353.9243269444446 | 1.19e-05 | deg |
tp | 2459222.855888941626 (2021-Jan-08.35588894) | 4.3814e-05 | TDB |
period | 1324.646659784702 3.63 | 4.7527e-06 1.301e-08 | d yr |
n | .2717705867755796 | 9.7508e-10 | deg/d |
Q | 2.749746322060945 | 6.5772e-09 | au |
|
| | Orbit Determination Parameters
Additional Information
|